QPF
0.00 0.00 0.00 0.06 0.10 0.04 0.01 0.01 0.00 0.03 0.00 0.00 0.00 0.01 0.04 0.03 0.02 0.00 0.00 0.01 0.01 0.00 0.00 0.02 0.09 0.09 0.04 0.00 0.00 0.00 0.00 0.00 0.00 0.00 0.00 0.00 0.00 0.00 0.00 0.00 0.00 0.00 0.00 0.00 0.00 0.00 0.00 0.00 0.00
0.00 0.00 0.14 0.24 0.14 0.02 0.02 0.01 0.01 0.03 0.00 0.00 0.01 0.04 0.01 0.00 0.00 0.00 0.03 0.01 0.00 0.00 0.00 0.00 0.05 0.06 0.04 0.00 0.00 0.00 0.00 0.00 0.00 0.00 0.00 0.00 0.00 0.00 0.00 0.00 0.00 0.00 0.00 0.00 0.00 0.00 0.00 0.00 0.00
0.00 0.01 0.18 0.19 0.02 0.01 0.00 0.00 0.00 0.00 0.00 0.01 0.00 0.03 0.00 0.00 0.00 0.00 0.00 0.00 0.00 0.00 0.00 0.00 0.04 0.03 0.00 0.00 0.00 0.00 0.00 0.00 0.00 0.00 0.00 0.00 0.00 0.00 0.00 0.00 0.00 0.00 0.00 0.00 0.00 0.00 0.00 0.00 0.00
0.00 0.04 0.04 0.01 0.00 0.01 0.00 0.00 0.00 0.00 0.00 0.01 0.00 0.00 0.00 0.00 0.00 0.00 0.00 0.00 0.00 0.01 0.00 0.00 0.00 0.00 0.00 0.00 0.00 0.00 0.00 0.00 0.00 0.00 0.00 0.00 0.00 0.00 0.00 0.00 0.00 0.00 0.00 0.00 0.00 0.00 0.00 0.00 0.00
0.00 0.04 0.01 0.00 0.00 0.00 0.00 0.00 0.01 0.01 0.00 0.00 0.00 0.00 0.00 0.00 0.00 0.00 0.00 0.00 0.00 0.00 0.00 0.00 0.00 0.00 0.00 0.00 0.00 0.00 0.00 0.00 0.00 0.00 0.00 0.00 0.00 0.00 0.00 0.00 0.00 0.00 0.00 0.00 0.00 0.00 0.00 0.00 0.00
0.00 0.02 0.00 0.00 0.00 0.00 0.00 0.00 0.00 0.00 0.00 0.00 0.00 0.00 0.00 0.00 0.00 0.00 0.00 0.00 0.00 0.00 0.00 0.00 0.00 0.00 0.00 0.01 0.00 0.00 0.00 0.00 0.00 0.00 0.00 0.00 0.00 0.00 0.00 0.00 0.00 0.00 0.00 0.00 0.00 0.00 0.00 0.00 0.00
0.00 0.00 0.00 0.00 0.00 0.00 0.00 0.00 0.00 0.00 0.00 0.00 0.00 0.00 0.00 0.00 0.00 0.00 0.00 0.00 0.00 0.00 0.00 0.00 0.00 0.00 0.00 0.00 0.00 0.00 0.00 0.00 0.00 0.00 0.00 0.00 0.00 0.00 0.00 0.00 0.00 0.00 0.00 0.00 0.00 0.00 0.00 0.00 0.00
0.00 0.00 0.00 0.00 0.00 0.00 0.00 0.00 0.00 0.00 0.00 0.00 0.01 0.00 0.00 0.00 0.00 0.00 0.00 0.00 0.01 0.00 0.00 0.00 0.00 0.00 0.00 0.00 0.00 0.00 0.00 0.00 0.00 0.00 0.00 0.00 0.00 0.00 0.00 0.00 0.00 0.00 0.00 0.00 0.00 0.00 0.00 0.00 0.00
0.00 0.02 0.00 0.00 0.00 0.00 0.00 0.00 0.00 0.00 0.00 0.00 0.00 0.00 0.00 0.00 0.00 0.00 0.00 0.00 0.00 0.00 0.00 0.00 0.00 0.00 0.00 0.00 0.00 0.00 0.00 0.00 0.00 0.00 0.00 0.00 0.04 0.05 0.02 0.01 0.00 0.00 0.00 0.00 0.00 0.00 0.00 0.00 0.00
0.01 0.00 0.00 0.00 0.00 0.00 0.00 0.00 0.00 0.00 0.00 0.00 0.00 0.00 0.00 0.00 0.00 0.00 0.00 0.00 0.00 0.00 0.00 0.00 0.00 0.00 0.00 0.00 0.00 0.00 0.00 0.00 0.00 0.00 0.01 0.00 0.04 0.02 0.01 0.00 0.00 0.00 0.00 0.01 0.01 0.01 0.00 0.03 0.00
0.00 0.00 0.00 0.00 0.00 0.00 0.00 0.00 0.00 0.00 0.00 0.00 0.00 0.00 0.00 0.00 0.00 0.00 0.00 0.00 0.00 0.00 0.00 0.00 0.00 0.00 0.00 0.00 0.00 0.00 0.00 0.00 0.00 0.00 0.00 0.00 0.00 0.00 0.00 0.00 0.01 0.00 0.00 0.03 0.02 0.09 0.04 0.06 0.00
0.00 0.00 0.00 0.00 0.00 0.00 0.00 0.00 0.00 0.00 0.00 0.00 0.00 0.00 0.00 0.00 0.00 0.00 0.00 0.00 0.00 0.00 0.00 0.00 0.00 0.00 0.00 0.00 0.00 0.00 0.00 0.00 0.00 0.00 0.00 0.00 0.00 0.00 0.00 0.00 0.00 0.00 0.00 0.01 0.02 0.11 0.08 0.00 0.00
0.00 0.00 0.00 0.00 0.00 0.00 0.00 0.00 0.00 0.00 0.00 0.00 0.00 0.00 0.00 0.00 0.00 0.00 0.00 0.00 0.00 0.00 0.00 0.00 0.00 0.00 0.00 0.00 0.00 0.00 0.00 0.00 0.00 0.00 0.00 0.00 0.00 0.00 0.00 0.00 0.00 0.00 0.00 0.00 0.00 0.01 0.01 0.03 0.00
0.00 0.00 0.00 0.00 0.00 0.00 0.00 0.00 0.00 0.00 0.00 0.00 0.00 0.00 0.00 0.00 0.00 0.00 0.00 0.00 0.00 0.00 0.00 0.00 0.00 0.00 0.00 0.00 0.00 0.00 0.00 0.00 0.00 0.00 0.00 0.00 0.00 0.00 0.01 0.01 0.00 0.00 0.00 0.00 0.00 0.01 0.01 0.00 0.00
0.00 0.00 0.00 0.00 0.00 0.00 0.00 0.00 0.00 0.00 0.00 0.00 0.00 0.00 0.00 0.00 0.00 0.00 0.00 0.00 0.00 0.00 0.00 0.00 0.00 0.00 0.00 0.00 0.00 0.00 0.00 0.00 0.00 0.00 0.00 0.00 0.01 0.00 0.01 0.03 0.01 0.00 0.01 0.00 0.00 0.00 0.01 0.00 0.00
0.00 0.00 0.00 0.00 0.00 0.00 0.00 0.00 0.00 0.00 0.00 0.00 0.00 0.00 0.00 0.00 0.00 0.00 0.00 0.00 0.00 0.00 0.00 0.00 0.00 0.00 0.00 0.00 0.00 0.00 0.00 0.00 0.00 0.00 0.00 0.00 0.01 0.03 0.02 0.01 0.00 0.00 0.01 0.01 0.03 0.02 0.01 0.00 0.00
0.00 0.00 0.00 0.00 0.00 0.00 0.00 0.00 0.00 0.00 0.00 0.00 0.00 0.00 0.00 0.00 0.00 0.00 0.00 0.00 0.00 0.00 0.00 0.00 0.00 0.00 0.00 0.00 0.00 0.00 0.00 0.00 0.00 0.00 0.00 0.00 0.00 0.03 0.03 0.01 0.03 0.04 0.02 0.00 0.03 0.02 0.00 0.00 0.00
0.00 0.00 0.00 0.00 0.00 0.00 0.00 0.01 0.00 0.00 0.00 0.00 0.00 0.00 0.00 0.00 0.00 0.00 0.00 0.00 0.00 0.00 0.00 0.00 0.00 0.00 0.00 0.00 0.01 0.01 0.00 0.00 0.00 0.00 0.00 0.01 0.01 0.01 0.02 0.00 0.02 0.02 0.01 0.03 0.04 0.00 0.00 0.00 0.00
0.00 0.00 0.00 0.00 0.00 0.00 0.00 0.00 0.01 0.00 0.00 0.00 0.00 0.00 0.00 0.00 0.00 0.00 0.00 0.00 0.00 0.00 0.00 0.00 0.00 0.00 0.00 0.00 0.00 0.01 0.00 0.00 0.00 0.00 0.00 0.01 0.01 0.01 0.04 0.02 0.02 0.00 0.02 0.02 0.00 0.00 0.00 0.00 0.00
0.00 0.00 0.00 0.00 0.00 0.00 0.00 0.00 0.00 0.00 0.00 0.00 0.00 0.00 0.00 0.00 0.00 0.00 0.00 0.00 0.00 0.00 0.00 0.00 0.00 0.00 0.00 0.00 0.00 0.01 0.00 0.00 0.00 0.00 0.00 0.00 0.01 0.01 0.01 0.02 0.01 0.00 0.00 0.00 0.00 0.00 0.00 0.00 0.00
0.00 0.00 0.00 0.00 0.00 0.00 0.00 0.00 0.00 0.00 0.00 0.00 0.00 0.00 0.00 0.00 0.00 0.00 0.00 0.00 0.00 0.00 0.00 0.00 0.00 0.00 0.00 0.00 0.00 0.00 0.01 0.01 0.00 0.00 0.00 0.00 0.00 0.00 0.00 0.01 0.01 0.01 0.00 0.00 0.00 0.00 0.00 0.00 0.00
0.00 0.00 0.00 0.00 0.00 0.00 0.00 0.00 0.00 0.00 0.00 0.00 0.00 0.00 0.00 0.00 0.00 0.00 0.00 0.00 0.00 0.00 0.00 0.00 0.00 0.00 0.00 0.00 0.00 0.00 0.00 0.00 0.00 0.00 0.00 0.00 0.00 0.00 0.00 0.00 0.00 0.00 0.00 0.00 0.00 0.00 0.00 0.00 0.00
0.00 0.00 0.00 0.00 0.00 0.00 0.00 0.00 0.00 0.00 0.00 0.00 0.00 0.00 0.00 0.00 0.00 0.00 0.00 0.00 0.00 0.00 0.00 0.00 0.00 0.00 0.00 0.00 0.00 0.00 0.00 0.00 0.00 0.00 0.00 0.00 0.00 0.00 0.00 0.00 0.00 0.00 0.00 0.00 0.00 0.00 0.00 0.00 0.00
0.00 0.00 0.00 0.00 0.00 0.00 0.00 0.00 0.00 0.00 0.00 0.00 0.00 0.00 0.00 0.00 0.00 0.00 0.00 0.00 0.00 0.00 0.00 0.00 0.00 0.00 0.00 0.00 0.00 0.00 0.00 0.00 0.00 0.00 0.00 0.00 0.00 0.00 0.00 0.00 0.00 0.00 0.00 0.00 0.00 0.00 0.00 0.00 0.00
0.00 0.00 0.00 0.00 0.00 0.00 0.00 0.00 0.00 0.00 0.00 0.00 0.00 0.00 0.00 0.00 0.00 0.00 0.00 0.00 0.00 0.00 0.00 0.00 0.00 0.00 0.00 0.00 0.00 0.00 0.00 0.00 0.00 0.00 0.00 0.00 0.00 0.00 0.00 0.00 0.00 0.00 0.00 0.00 0.00 0.00 0.00 0.00 0.00
0.00 0.00 0.00 0.00 0.00 0.00 0.00 0.00 0.00 0.00 0.00 0.00 0.00 0.00 0.00 0.00 0.00 0.00 0.00 0.00 0.00 0.00 0.00 0.00 0.00 0.00 0.00 0.00 0.00 0.00 0.00 0.00 0.00 0.00 0.00 0.00 0.00 0.00 0.00 0.00 0.00 0.00 0.00 0.00 0.00 0.00 0.00 0.00 0.00
0.00 0.00 0.00 0.00 0.00 0.00 0.00 0.00 0.00 0.00 0.00 0.00 0.00 0.00 0.00 0.00 0.00 0.00 0.00 0.00 0.00 0.00 0.00 0.00 0.00 0.00 0.00 0.00 0.00 0.00 0.00 0.00 0.00 0.00 0.00 0.00 0.00 0.00 0.00 0.00 0.00 0.00 0.00 0.00 0.00 0.00 0.00 0.00 0.00
0.00 0.00 0.00 0.00 0.00 0.00 0.00 0.00 0.00 0.00 0.00 0.00 0.00 0.00 0.00 0.00 0.00 0.00 0.00 0.00 0.00 0.00 0.00 0.00 0.00 0.00 0.00 0.00 0.00 0.00 0.00 0.00 0.00 0.00 0.00 0.00 0.00 0.00 0.00 0.00 0.00 0.00 0.00 0.00 0.00 0.00 0.00 0.00 0.00
0.00 0.00 0.00 0.00 0.00 0.00 0.00 0.00 0.00 0.00 0.00 0.00 0.00 0.00 0.00 0.00 0.00 0.00 0.00 0.00 0.00 0.00 0.00 0.00 0.00 0.00 0.00 0.00 0.00 0.00 0.00 0.00 0.00 0.00 0.00 0.00 0.00 0.00 0.00 0.00 0.00 0.00 0.00 0.00 0.00 0.00 0.00 0.00 0.00
0.00 0.00 0.00 0.00 0.00 0.00 0.00 0.00 0.00 0.00 0.00 0.00 0.00 0.00 0.00 0.00 0.00 0.00 0.00 0.00 0.00 0.00 0.00 0.00 0.00 0.00 0.00 0.00 0.00 0.00 0.00 0.00 0.00 0.00 0.00 0.00 0.00 0.00 0.00 0.00 0.00 0.00 0.00 0.00 0.00 0.00 0.00 0.00 0.00
MSLP
1007.95 1008.20 1007.87 1008.48 1009.42 1007.35 1005.80 1004.45 1003.15 1003.27 1003.54 1004.22 1005.44 1007.30 1008.03 1008.47 1008.16 1010.63 1011.65 1012.49 1012.67 1013.12 1013.77 1014.08 1014.45 1014.75 1015.03 1015.27 1015.35 1015.66 1015.93 1016.14 1016.36 1016.56 1016.57 1016.85 1016.89 1017.05 1017.15 1017.18 1017.35 1017.37 1017.45 1017.47 1017.45 1017.42 1017.40 1017.41 1017.39
1007.40 1007.80 1006.92 1008.60 1008.70 1006.32 1004.54 1003.41 1003.65 1002.73 1002.96 1004.45 1005.93 1007.61 1007.25 1008.13 1008.35 1010.31 1011.44 1011.97 1012.21 1012.61 1013.40 1014.03 1014.63 1014.98 1015.17 1015.28 1015.51 1015.91 1016.11 1016.43 1016.65 1016.72 1016.86 1016.98 1017.15 1017.25 1017.31 1017.37 1017.49 1017.50 1017.61 1017.62 1017.59 1017.55 1017.47 1017.44 1017.37
1006.29 1006.20 1006.12 1003.70 1004.75 1005.37 1003.35 1002.57 1001.69 1001.62 1002.62 1003.04 1005.09 1006.58 1006.78 1008.49 1009.23 1009.89 1011.23 1011.71 1012.09 1012.62 1013.41 1014.38 1014.84 1015.05 1015.26 1015.49 1015.80 1016.14 1016.43 1016.62 1016.74 1016.89 1016.96 1017.11 1017.21 1017.26 1017.37 1017.51 1017.53 1017.59 1017.64 1017.60 1017.62 1017.62 1017.58 1017.48 1017.42
1005.69 1004.92 1004.50 1002.43 1002.47 1003.08 1001.47 1001.25 1000.64 1001.20 1002.20 1003.42 1004.53 1005.90 1007.20 1008.06 1009.03 1010.44 1011.15 1011.60 1012.24 1012.85 1013.73 1014.57 1014.82 1015.15 1015.45 1015.71 1016.11 1016.36 1016.57 1016.71 1016.85 1016.92 1017.05 1017.12 1017.19 1017.33 1017.48 1017.59 1017.58 1017.59 1017.50 1017.48 1017.49 1017.50 1017.58 1017.55 1017.51
1004.39 1004.66 1002.21 999.98 1000.20 1000.47 1000.36 1000.88 1000.83 1001.05 1002.17 1003.53 1005.13 1006.39 1007.49 1008.41 1009.41 1010.34 1011.27 1011.88 1012.53 1012.97 1013.83 1014.50 1014.98 1015.32 1015.61 1015.91 1016.20 1016.42 1016.65 1016.79 1016.89 1016.99 1017.14 1017.24 1017.33 1017.48 1017.52 1017.55 1017.52 1017.55 1017.51 1017.52 1017.49 1017.53 1017.56 1017.55 1017.45
1003.64 1002.59 1000.98 998.96 999.19 999.06 999.03 999.66 1000.80 1000.69 1002.11 1003.71 1005.37 1006.80 1007.71 1008.36 1009.70 1010.42 1011.21 1011.68 1012.11 1012.78 1013.60 1014.61 1015.17 1015.49 1015.76 1015.99 1016.27 1016.49 1016.69 1016.83 1016.92 1017.07 1017.21 1017.29 1017.42 1017.49 1017.53 1017.46 1017.55 1017.62 1017.60 1017.54 1017.46 1017.45 1017.53 1017.51 1017.37
1002.32 1001.17 999.47 998.32 998.47 998.41 998.84 998.88 999.38 1000.49 1001.81 1003.24 1005.11 1006.66 1007.45 1008.40 1009.14 1009.93 1010.48 1011.02 1011.47 1012.45 1013.45 1014.46 1015.01 1015.48 1015.84 1016.11 1016.34 1016.57 1016.73 1016.83 1017.00 1017.17 1017.34 1017.61 1017.85 1017.74 1017.54 1017.54 1017.59 1017.61 1017.60 1017.52 1017.49 1017.51 1017.51 1017.41 1017.22
1002.00 1001.55 999.61 997.84 997.75 998.48 999.10 999.08 999.82 1000.21 1001.61 1002.86 1004.39 1005.87 1006.92 1007.66 1008.38 1009.03 1010.00 1011.38 1011.60 1012.65 1013.25 1014.04 1014.74 1015.21 1015.70 1016.10 1016.33 1016.58 1016.73 1016.88 1017.04 1017.21 1017.56 1017.91 1017.82 1017.92 1017.88 1017.53 1017.54 1017.49 1017.51 1017.58 1017.47 1017.44 1017.43 1017.30 1017.03
1003.42 1003.85 1000.51 998.70 997.41 998.29 998.89 999.38 999.74 1000.57 1001.62 1002.67 1003.52 1005.13 1006.19 1007.15 1007.57 1008.47 1010.04 1010.44 1011.48 1012.20 1012.85 1013.50 1014.28 1014.79 1015.16 1015.70 1016.22 1016.58 1016.77 1016.89 1017.02 1017.19 1017.61 1017.35 1017.12 1017.22 1017.30 1017.26 1017.20 1017.25 1017.50 1017.56 1017.77 1017.54 1017.45 1017.15 1016.89
1003.38 1004.55 1001.68 999.83 998.04 998.18 998.51 999.12 1000.00 1001.01 1001.98 1002.61 1003.75 1004.88 1006.14 1006.87 1007.37 1008.17 1009.54 1010.43 1011.32 1012.09 1012.86 1013.30 1013.59 1014.19 1014.62 1014.84 1015.99 1016.32 1016.45 1016.56 1016.64 1016.70 1017.02 1017.05 1017.06 1017.32 1016.88 1016.75 1017.05 1017.19 1017.55 1017.69 1017.59 1017.63 1017.44 1017.32 1016.73
1002.68 1003.94 1001.42 998.40 998.46 998.00 998.31 998.79 999.84 1000.66 1001.76 1002.66 1003.75 1005.10 1006.28 1006.71 1007.30 1007.90 1009.06 1010.07 1011.24 1011.87 1012.40 1012.83 1013.28 1013.71 1014.07 1014.70 1015.45 1015.51 1015.59 1015.63 1015.82 1015.97 1016.38 1016.48 1016.30 1016.25 1016.28 1016.59 1016.84 1017.02 1017.30 1017.41 1017.43 1017.44 1017.01 1017.09 1016.59
1001.01 1000.73 999.21 997.93 997.23 997.56 997.62 998.40 999.44 1000.07 1000.86 1002.33 1003.62 1005.22 1006.22 1006.71 1007.13 1007.62 1008.34 1009.48 1010.69 1011.37 1011.67 1012.35 1012.97 1013.43 1013.97 1014.35 1014.58 1014.49 1014.67 1014.76 1015.16 1015.32 1015.76 1016.13 1016.17 1016.06 1016.04 1016.59 1016.54 1016.82 1017.07 1016.98 1017.20 1017.56 1018.05 1016.88 1016.52
997.51 998.33 998.42 996.52 996.70 996.92 997.44 998.00 999.04 999.98 1000.79 1002.13 1003.53 1005.11 1006.02 1006.59 1007.02 1007.41 1007.79 1008.89 1010.20 1011.07 1011.26 1012.13 1012.62 1013.18 1013.49 1013.80 1013.77 1013.89 1014.09 1014.32 1014.39 1015.08 1015.49 1015.69 1015.93 1016.07 1015.91 1016.18 1016.40 1016.66 1016.66 1016.85 1016.97 1017.05 1017.06 1017.20 1016.69
996.26 996.09 996.01 995.78 996.00 996.60 997.46 997.91 998.81 999.97 1000.72 1001.97 1003.43 1004.77 1005.64 1006.13 1006.64 1007.15 1007.58 1008.47 1009.52 1010.37 1010.69 1011.39 1012.28 1013.05 1013.39 1013.81 1013.90 1014.01 1014.00 1014.27 1014.45 1014.70 1015.37 1015.56 1015.73 1016.06 1016.34 1016.34 1016.49 1016.56 1016.79 1016.79 1016.78 1016.98 1017.03 1016.82 1016.50
996.20 995.59 995.62 995.70 995.90 996.11 996.94 997.80 998.65 999.80 1000.74 1001.87 1003.16 1004.35 1005.10 1005.62 1006.19 1006.74 1007.34 1008.15 1009.05 1009.92 1010.37 1011.09 1012.00 1012.84 1013.50 1013.86 1013.91 1014.18 1014.14 1014.19 1014.74 1014.87 1015.39 1015.36 1015.80 1015.99 1016.26 1016.51 1016.48 1016.31 1016.63 1016.62 1016.83 1017.00 1016.83 1016.85 1016.44
996.26 995.57 995.02 994.82 995.41 996.07 997.29 997.81 998.47 999.67 1000.60 1001.64 1002.75 1003.72 1004.45 1005.08 1005.60 1006.34 1007.00 1007.78 1008.76 1009.52 1010.14 1010.84 1011.48 1012.27 1013.16 1013.73 1013.87 1014.17 1014.22 1014.44 1014.61 1014.97 1015.00 1015.36 1015.67 1016.13 1016.42 1016.57 1016.42 1016.38 1016.52 1016.62 1016.83 1017.07 1017.00 1016.94 1016.51
996.09 995.04 994.71 994.44 995.17 996.04 997.32 999.08 999.60 999.67 1000.39 1001.19 1002.11 1002.96 1003.71 1004.53 1005.08 1005.80 1006.51 1007.33 1008.22 1009.12 1009.93 1010.71 1011.23 1011.71 1012.60 1013.25 1013.63 1013.89 1013.96 1014.19 1014.44 1014.77 1014.84 1015.17 1015.47 1015.86 1016.30 1016.06 1016.17 1016.23 1016.38 1016.44 1016.79 1016.89 1017.02 1016.92 1016.78
995.41 994.60 994.18 993.87 994.75 995.68 997.12 999.77 1000.95 1000.20 1000.04 1000.49 1001.31 1002.14 1002.96 1003.67 1004.35 1005.10 1005.92 1006.81 1007.67 1008.60 1009.54 1010.32 1010.94 1011.39 1012.08 1012.76 1013.31 1013.62 1013.84 1014.07 1014.15 1014.27 1014.32 1014.86 1015.11 1015.33 1015.93 1015.84 1015.73 1015.97 1016.06 1016.43 1016.89 1017.04 1017.08 1017.17 1017.14
995.08 994.15 993.65 993.28 994.86 995.60 996.77 999.70 1000.91 1000.23 999.74 999.63 1000.25 1001.17 1002.01 1002.79 1003.64 1004.42 1005.36 1006.20 1007.17 1008.08 1009.02 1009.87 1010.59 1011.12 1011.74 1012.26 1013.00 1013.51 1013.86 1013.99 1014.02 1013.85 1014.22 1014.80 1014.87 1015.16 1015.54 1015.86 1015.94 1015.85 1016.17 1016.72 1016.79 1017.04 1017.30 1017.12 1016.98
994.99 993.87 993.02 992.82 994.53 995.45 995.88 997.63 998.02 998.41 998.03 998.43 999.10 1000.09 1000.95 1001.81 1002.68 1003.70 1004.60 1005.47 1006.45 1007.49 1008.46 1009.41 1010.16 1010.80 1011.36 1011.98 1012.52 1013.12 1013.31 1013.24 1013.30 1013.22 1013.48 1013.95 1014.58 1014.92 1015.32 1015.65 1015.82 1015.92 1016.08 1016.48 1016.95 1017.23 1017.47 1017.17 1016.97
994.46 993.60 992.92 992.72 993.29 994.12 994.85 995.74 995.87 996.21 996.98 997.35 997.85 998.70 999.81 1000.67 1001.61 1002.66 1003.74 1004.80 1005.68 1006.71 1007.72 1008.72 1009.73 1010.49 1011.16 1011.63 1012.27 1012.75 1013.01 1012.81 1012.75 1013.18 1013.65 1013.81 1013.92 1014.40 1014.80 1015.18 1015.50 1015.93 1016.06 1016.52 1017.01 1017.26 1017.37 1017.41 1017.30
993.40 993.31 992.95 992.89 992.71 993.39 994.58 994.33 994.89 995.81 995.86 996.37 996.66 997.34 998.19 999.35 1000.47 1001.44 1002.57 1003.82 1004.87 1005.87 1007.00 1008.20 1009.14 1010.06 1010.79 1011.42 1011.94 1012.11 1012.37 1012.48 1012.54 1012.81 1012.98 1013.36 1013.73 1014.07 1014.46 1014.86 1015.24 1015.76 1016.25 1016.53 1016.84 1017.08 1017.45 1017.49 1017.61
992.60 992.80 992.69 992.61 992.59 992.98 994.68 994.86 994.39 994.57 994.86 995.19 995.70 996.29 996.85 997.65 998.95 1000.11 1001.20 1002.60 1003.96 1005.05 1006.19 1007.33 1008.47 1009.42 1010.15 1010.86 1011.32 1011.68 1011.86 1012.11 1012.23 1012.34 1012.80 1013.24 1013.51 1013.64 1014.09 1014.61 1015.13 1015.87 1016.19 1016.40 1016.70 1017.11 1017.50 1017.69 1017.56
992.74 992.67 992.42 992.38 992.35 992.47 993.41 994.19 993.51 993.47 994.07 994.82 994.32 995.15 995.70 996.33 997.29 998.64 999.87 1001.30 1002.63 1003.88 1005.10 1006.32 1007.57 1008.64 1009.43 1010.30 1010.88 1011.30 1011.51 1011.71 1011.87 1012.03 1012.57 1012.99 1013.36 1013.80 1014.11 1014.52 1015.08 1015.53 1015.97 1016.25 1016.65 1017.10 1017.42 1017.57 1017.64
992.21 992.34 991.89 991.70 991.16 991.07 991.98 992.44 992.13 992.42 993.03 993.22 994.33 995.28 994.53 995.14 995.84 997.22 998.50 999.80 1001.28 1002.45 1003.82 1005.14 1006.50 1007.68 1008.62 1009.44 1010.27 1010.79 1011.17 1011.37 1011.57 1011.79 1012.06 1012.55 1013.06 1013.62 1014.10 1014.51 1014.92 1015.51 1015.74 1015.89 1016.21 1016.85 1017.19 1017.52 1017.61
991.25 991.34 990.89 990.84 990.62 990.87 990.78 989.80 989.99 991.45 992.39 993.07 993.48 994.14 992.89 993.86 994.81 996.09 997.35 998.61 1000.00 1001.37 1002.66 1003.94 1005.39 1006.73 1007.69 1008.59 1009.39 1010.14 1010.56 1010.89 1011.07 1011.43 1011.55 1011.98 1012.24 1012.59 1013.29 1013.90 1014.52 1014.93 1015.21 1015.17 1015.34 1015.68 1016.38 1016.93 1017.49
990.32 990.47 991.09 991.11 990.79 990.15 989.23 988.99 989.03 989.96 991.00 991.66 992.88 992.10 991.94 992.57 993.42 994.63 996.13 997.44 998.81 1000.28 1001.56 1002.78 1004.28 1005.73 1006.83 1007.71 1008.61 1009.23 1009.83 1010.16 1010.39 1010.86 1011.26 1011.61 1011.83 1012.01 1012.72 1013.39 1014.02 1014.45 1014.79 1015.12 1015.44 1015.94 1015.75 1015.67 1016.60
989.51 990.31 990.68 990.58 989.96 988.97 988.76 988.25 988.02 988.76 990.00 993.08 991.09 991.44 991.33 991.59 992.15 993.44 995.00 996.47 997.82 999.27 1000.67 1002.03 1003.29 1004.57 1005.81 1006.76 1007.52 1008.27 1008.83 1009.39 1009.93 1010.33 1010.64 1011.04 1011.33 1011.65 1012.36 1012.85 1013.38 1014.00 1014.63 1014.92 1015.63 1016.14 1015.94 1015.77 1015.64
989.51 989.62 989.64 990.10 989.96 988.70 988.33 987.26 987.28 987.64 988.92 989.58 989.96 990.23 991.00 990.94 991.21 992.31 993.65 995.08 996.75 998.38 999.85 1001.15 1002.49 1003.76 1004.84 1005.79 1006.60 1007.35 1007.95 1008.58 1009.31 1009.53 1009.89 1010.29 1010.82 1011.07 1012.00 1012.50 1012.95 1013.54 1014.14 1014.75 1015.30 1015.76 1015.92 1015.68 1015.70
988.51 988.69 989.34 989.16 988.94 988.67 988.14 986.59 986.66 987.19 987.61 988.34 988.78 989.32 989.68 990.05 990.41 991.19 992.35 993.83 995.58 997.02 998.62 1000.05 1001.38 1002.57 1003.66 1004.69 1005.67 1006.38 1007.07 1007.66 1008.30 1008.83 1009.00 1009.55 1010.08 1010.61 1011.16 1011.90 1012.36 1012.86 1013.55 1014.29 1014.83 1015.26 1015.41 1015.40 1015.46
Thickness
5814 5811 5814 5795 5760 5769 5770 5788 5815 5804 5804 5819 5812 5785 5776 5776 5781 5749 5783 5779 5780 5777 5772 5770 5767 5765 5764 5763 5763 5760 5758 5756 5756 5755 5757 5755 5755 5754 5755 5754 5752 5751 5751 5750 5752 5752 5753 5753 5754
5820 5814 5801 5766 5747 5757 5784 5814 5784 5807 5824 5817 5806 5786 5792 5779 5797 5784 5781 5786 5786 5783 5777 5772 5768 5766 5764 5764 5764 5760 5757 5756 5756 5757 5757 5756 5755 5755 5755 5754 5752 5753 5751 5751 5753 5753 5754 5755 5757
5830 5828 5794 5787 5790 5759 5788 5815 5824 5833 5832 5831 5810 5801 5801 5781 5794 5794 5792 5792 5788 5785 5779 5772 5767 5766 5765 5764 5762 5759 5757 5758 5758 5758 5758 5757 5756 5756 5756 5754 5754 5754 5753 5754 5754 5755 5755 5757 5758
5832 5828 5822 5808 5803 5793 5825 5833 5840 5834 5835 5832 5822 5799 5806 5812 5799 5796 5797 5795 5789 5784 5778 5772 5770 5767 5765 5764 5761 5760 5759 5759 5759 5759 5759 5758 5757 5757 5756 5756 5756 5756 5756 5757 5757 5757 5756 5757 5758
5842 5817 5809 5842 5837 5836 5844 5839 5837 5829 5827 5822 5815 5792 5791 5806 5808 5804 5797 5794 5787 5785 5778 5773 5770 5768 5766 5764 5762 5761 5761 5761 5760 5760 5759 5759 5759 5758 5758 5757 5758 5758 5758 5758 5758 5758 5758 5758 5759
5816 5830 5807 5833 5836 5849 5853 5850 5836 5838 5831 5821 5806 5792 5792 5814 5802 5802 5800 5797 5795 5788 5782 5774 5770 5768 5767 5765 5764 5763 5763 5762 5762 5761 5761 5761 5761 5760 5759 5759 5759 5759 5759 5758 5759 5759 5759 5759 5760
5823 5829 5835 5853 5837 5839 5846 5867 5848 5839 5830 5820 5818 5785 5799 5803 5810 5809 5807 5804 5801 5792 5784 5777 5773 5770 5767 5767 5766 5765 5765 5765 5764 5763 5762 5759 5756 5757 5760 5760 5760 5759 5760 5760 5760 5759 5759 5760 5760
5837 5833 5834 5861 5842 5831 5853 5857 5858 5847 5826 5844 5831 5792 5789 5808 5817 5816 5810 5799 5800 5792 5787 5782 5777 5774 5771 5769 5769 5767 5767 5767 5766 5765 5760 5755 5758 5755 5756 5762 5762 5762 5762 5759 5760 5760 5759 5759 5762
5822 5785 5821 5842 5854 5841 5861 5845 5860 5860 5839 5838 5835 5820 5822 5823 5825 5816 5804 5804 5797 5794 5792 5787 5782 5780 5778 5775 5772 5769 5768 5768 5768 5767 5759 5766 5768 5767 5762 5766 5767 5766 5762 5763 5758 5760 5760 5761 5763
5803 5774 5814 5837 5867 5853 5860 5853 5848 5837 5830 5828 5825 5830 5826 5824 5820 5810 5799 5795 5793 5791 5790 5792 5790 5786 5784 5783 5775 5773 5773 5772 5773 5773 5767 5767 5767 5768 5768 5772 5770 5769 5763 5760 5762 5764 5765 5763 5765
5807 5779 5829 5858 5864 5870 5860 5854 5857 5836 5819 5827 5817 5816 5818 5820 5818 5813 5806 5802 5794 5797 5796 5797 5795 5792 5790 5787 5782 5782 5781 5781 5781 5780 5778 5775 5776 5777 5778 5776 5774 5778 5767 5765 5768 5769 5772 5770 5767
5815 5840 5854 5870 5885 5875 5864 5865 5848 5848 5841 5845 5836 5826 5819 5815 5816 5815 5812 5807 5802 5800 5803 5803 5800 5798 5794 5792 5790 5791 5790 5790 5788 5786 5783 5780 5780 5781 5781 5778 5778 5775 5771 5772 5771 5770 5764 5769 5770
5863 5852 5865 5896 5887 5883 5880 5861 5851 5847 5855 5852 5841 5826 5818 5817 5818 5822 5823 5818 5810 5802 5807 5805 5806 5802 5799 5797 5798 5797 5796 5794 5793 5789 5786 5785 5782 5782 5783 5782 5780 5777 5776 5773 5771 5770 5769 5769 5772
5886 5889 5888 5898 5890 5886 5867 5862 5859 5853 5859 5847 5836 5823 5821 5820 5821 5822 5823 5818 5814 5812 5814 5814 5809 5804 5800 5798 5798 5798 5797 5796 5796 5793 5788 5786 5785 5783 5782 5781 5780 5779 5778 5777 5776 5773 5772 5774 5775
5880 5872 5881 5882 5885 5879 5884 5850 5847 5858 5856 5842 5834 5827 5824 5825 5827 5823 5825 5821 5820 5818 5819 5816 5811 5807 5802 5799 5798 5797 5798 5797 5794 5793 5789 5790 5787 5785 5783 5781 5781 5782 5780 5779 5776 5773 5774 5774 5774
5855 5868 5849 5881 5883 5883 5873 5833 5859 5863 5851 5839 5836 5831 5828 5828 5831 5831 5831 5829 5826 5823 5820 5819 5817 5812 5805 5801 5800 5798 5798 5798 5797 5794 5794 5790 5789 5784 5782 5781 5783 5783 5781 5780 5778 5774 5773 5771 5774
5845 5834 5849 5866 5887 5875 5864 5819 5848 5864 5852 5841 5839 5836 5834 5831 5835 5836 5836 5834 5831 5827 5823 5819 5818 5816 5810 5806 5803 5801 5802 5801 5799 5797 5796 5794 5791 5787 5784 5786 5785 5783 5782 5781 5778 5776 5772 5770 5769
5824 5842 5859 5862 5878 5876 5854 5822 5831 5852 5853 5848 5845 5843 5840 5836 5837 5842 5841 5840 5837 5832 5827 5823 5821 5819 5815 5811 5807 5805 5804 5803 5802 5801 5800 5797 5793 5792 5788 5788 5787 5785 5784 5779 5775 5771 5770 5767 5763
5852 5861 5859 5880 5872 5869 5854 5814 5810 5836 5850 5854 5852 5848 5845 5843 5849 5850 5846 5844 5840 5836 5829 5825 5821 5819 5816 5812 5806 5802 5799 5802 5803 5804 5802 5797 5796 5793 5790 5787 5784 5784 5781 5775 5773 5770 5764 5764 5765
5846 5851 5867 5889 5874 5865 5866 5839 5849 5854 5866 5866 5860 5854 5852 5851 5851 5850 5848 5847 5842 5837 5832 5827 5823 5821 5818 5815 5812 5807 5806 5809 5808 5809 5806 5803 5798 5795 5790 5787 5785 5783 5780 5776 5770 5765 5759 5761 5762
5843 5845 5861 5869 5880 5880 5872 5854 5866 5875 5874 5876 5874 5871 5864 5857 5852 5851 5849 5847 5846 5840 5836 5831 5826 5822 5819 5818 5813 5809 5809 5811 5810 5806 5804 5804 5801 5796 5791 5787 5783 5780 5778 5772 5767 5763 5759 5752 5756
5830 5868 5868 5869 5866 5831 5869 5830 5857 5863 5864 5871 5876 5876 5874 5868 5865 5863 5857 5851 5849 5846 5844 5836 5830 5823 5820 5818 5812 5809 5805 5802 5807 5807 5808 5805 5799 5795 5792 5787 5783 5778 5774 5770 5766 5764 5757 5753 5745
5846 5873 5867 5870 5863 5856 5835 5821 5847 5872 5858 5865 5876 5881 5884 5883 5877 5870 5866 5860 5856 5853 5847 5841 5833 5827 5823 5819 5816 5811 5808 5808 5809 5809 5805 5802 5800 5797 5793 5788 5782 5776 5772 5770 5765 5760 5754 5750 5747
5867 5858 5864 5868 5862 5819 5842 5826 5839 5853 5855 5866 5884 5887 5890 5891 5889 5884 5879 5872 5862 5860 5853 5846 5836 5828 5825 5819 5816 5811 5808 5806 5805 5805 5800 5799 5797 5794 5790 5786 5781 5775 5771 5766 5762 5756 5752 5748 5745
5849 5836 5813 5810 5821 5819 5865 5835 5849 5877 5882 5887 5876 5867 5894 5899 5896 5888 5881 5876 5868 5863 5857 5851 5841 5830 5827 5822 5816 5812 5809 5808 5805 5804 5801 5798 5795 5791 5788 5785 5780 5773 5768 5765 5759 5752 5748 5743 5740
5834 5837 5815 5783 5806 5826 5870 5845 5863 5891 5891 5884 5879 5877 5902 5899 5899 5893 5888 5882 5875 5868 5862 5854 5843 5833 5830 5824 5818 5814 5811 5809 5808 5805 5805 5803 5800 5798 5794 5789 5782 5776 5771 5769 5765 5760 5751 5744 5736
5835 5819 5853 5830 5846 5837 5860 5877 5901 5901 5893 5883 5880 5899 5907 5899 5902 5902 5896 5891 5883 5874 5867 5860 5849 5838 5832 5827 5820 5817 5814 5811 5810 5808 5807 5806 5804 5804 5797 5792 5784 5778 5773 5766 5760 5752 5748 5742 5732
5843 5856 5815 5825 5794 5800 5841 5852 5861 5882 5868 5853 5886 5892 5908 5914 5909 5904 5900 5894 5889 5882 5873 5865 5856 5844 5836 5830 5825 5821 5818 5816 5813 5812 5810 5808 5806 5807 5798 5792 5786 5778 5770 5763 5753 5745 5744 5738 5733
5823 5818 5829 5838 5831 5815 5812 5843 5906 5900 5891 5885 5893 5901 5902 5915 5917 5909 5907 5903 5895 5887 5877 5868 5858 5848 5840 5833 5828 5824 5822 5820 5817 5816 5815 5812 5809 5806 5798 5792 5786 5778 5770 5762 5753 5743 5740 5738 5730
5840 5829 5827 5803 5806 5831 5835 5849 5919 5915 5914 5907 5903 5906 5912 5917 5922 5921 5912 5908 5899 5891 5882 5872 5864 5855 5847 5841 5834 5830 5827 5826 5822 5819 5819 5815 5810 5806 5800 5793 5787 5780 5771 5762 5752 5744 5739 5734 5730